STARLINK-32637, 62032

Orbit data source: Space-Track

STARLINK-32637, 62032 is a payload satellite owned by SpaceX/Seattle (US) in LEO that was launched on Thu, 21 Nov 2024 UTC via an FALCON 9 launch vehicle from the Air Force Eastern Test Range (AFETR). Payload-class satellites include a variety of spacecraft equipped with specific instruments for various scientific and technological missions. These include communications satellites like Starlink; space stations such as the ISS; scientific satellites like the Hubble; Earth observation satellites from companies like Planet Labs, Umbra, and HawkEye 360; GPS; miniature CubeSats for education and research; and military/defense satellites.

Loading next visibility...
Identifier
62032, 2024-216A
Orbit
LEO
Country
Flag of USUS
Related business
Manufacturer
SpaceX/Seattle
Mission
Operational Commercial Communications
Bus & Motor
STARLINK V2M, Unknown motor
Mass
730 kg wet, ~700 kg dry
Launch date (UTC)
2024-11-21 (10 months ago)
Launch vehicle
FALCON 9
Launch site
Air Force Eastern Test Range (AFETR)
Object type
Payload
Rocket body
Debris
Shape & HBR
Box + 2 Pan, 14.5 m
Radar Cross Section
36.964 m², Large (>1 m²)

Expand to show TLE details & history
Last TLE update: 1 day ago

TLE from 1 day ago
0 STARLINK-32637
1 62032U 24216A   25260.11124798  .00016740  00000-0  61716-3 0  9998
2 62032  43.0019 156.2090 0001481 236.7679 123.3031 15.27542898 47330
Epoch: 2025-09-17T02:40Z
TLE epoch observation values (Epoch: 2025-09-17T02:40:11.825Z)
Latitude
-0.00001°
Longitude
119.86784°
Altitude
483.494 km
Speed
7.625 km/s
True Right ascension
10h 24m 50s
True Declination
0° 00' 00"
Sunlit
Object was in daylight at epoch
Visualization orbit readout
Latitude
Unknown
Longitude
Unknown
Altitude
Unknown
Speed
Unknown
Apparent Right ascension
Unknown
Apparent Declination
Unknown
Sunlit
N/A
Visualization observer readout
Local Sidereal Time
21:34:15
Azimuth
Unknown
Elevation
Unknown
Doppler factor
Unknown
Orbital elements
Apogee altitude
486.121 km
Perigee altitude
484.089 km
Semi-major axis
6,863.242 km
Eccentricity
0.00015
Inclination
43.0019°
RAAN
156.209°
Arg. of periapsis
236.7679°
True anomaly
123.31728°
Mean anomaly
123.3031°
Eccentric anomaly
123.31019°
Mean motion
3.81724 °/min
Orbital period
94.31 mins
BSTAR
0.00061716
Loading maneuver chart data...
Computing Atmospheric mass density...
Loading historical data...
Loading historical data...
Loading historical data...
Loading historical data...
Loading historical data...
Loading historical data...
Loading historical data...

Documentation

Showing up to 5 results
|